Temperature
21 22 23 24 24 24 23 21 21 21 20 20 20 20 21 21 21 21 21 21 21 21 21 21 20 20 20 20 20 19 19 19 19 19 18 18 18 18 18 18 18 18 17 18
21 22 23 23 24 24 23 22 21 21 20 20 20 21 20 20 20 20 20 20 20 20 20 20 20 20 20 20 19 19 19 19 19 19 18 18 18 18 18 18 18 17 17 17
19 20 22 21 22 22 22 21 21 20 19 19 19 19 20 20 20 19 19 19 19 20 20 19 19 19 19 19 19 19 18 18 18 18 18 18 18 18 17 17 17 17 17 17
17 20 20 20 21 22 21 20 20 19 19 19 18 19 20 20 19 19 19 19 19 19 19 19 19 19 19 18 18 18 18 18 18 18 17 17 17 17 17 17 17 17 17 17
16 18 19 20 21 21 20 19 19 19 18 18 19 18 18 19 19 19 19 19 19 18 18 18 18 18 18 18 18 18 17 17 17 17 17 17 17 17 17 17 17 17 17 16
16 18 18 19 21 22 20 18 18 18 17 18 18 16 16 18 18 19 18 18 18 18 18 17 17 17 17 17 17 17 17 17 17 17 17 17 17 16 16 16 16 16 16 16
16 17 17 19 20 21 19 17 18 18 17 17 16 16 17 18 18 18 18 18 18 18 17 17 17 17 17 17 17 17 17 17 17 16 16 16 16 16 16 16 16 16 16 15
15 16 17 18 18 17 16 17 18 18 18 17 17 17 17 17 18 18 17 17 17 17 17 17 16 16 16 16 16 16 16 16 16 16 16 16 16 15 15 15 15 15 15 15
14 15 16 18 17 18 18 17 17 18 17 17 17 17 17 17 17 17 17 16 16 16 16 16 16 16 16 16 16 15 15 15 15 15 15 15 15 15 15 15 14 15 15 15
14 15 16 17 17 18 18 18 17 17 17 17 17 17 17 16 16 16 16 16 16 16 16 16 16 15 15 15 15 15 15 15 15 15 15 15 14 14 14 14 14 14 14 14
14 15 16 16 17 17 17 17 17 17 17 17 16 16 16 16 16 16 16 16 16 16 15 15 15 15 15 15 15 15 15 14 14 14 14 14 14 14 14 14 14 14 14 14
13 14 14 15 17 17 17 17 16 16 16 16 16 16 16 16 15 15 15 15 15 15 15 15 15 15 15 15 14 14 14 14 14 14 14 13 13 13 13 13 13 13 13 13
16 16 16 16 16 16 16 16 16 16 15 15 15 15 15 15 15 15 15 15 15 15 15 15 15 15 14 14 14 14 14 14 14 13 13 13 13 13 13 13 13 13 13 13
16 16 16 16 16 16 16 16 16 15 15 15 15 15 15 15 14 14 14 14 14 14 14 14 14 14 14 14 14 14 13 13 13 13 13 13 12 12 12 12 12 12 12 12
16 16 16 16 16 16 16 15 15 15 15 15 14 14 14 14 14 14 14 14 14 14 14 13 13 13 13 13 13 13 13 13 13 13 12 12 12 12 12 12 12 12 12 12
15 16 16 15 15 15 15 15 15 14 14 14 14 14 14 14 14 14 13 13 13 13 13 13 13 13 13 13 13 13 12 12 12 12 12 12 12 12 12 12 12 11 11 11
15 15 15 15 15 15 15 15 14 14 14 14 13 13 13 13 13 13 13 13 13 12 12 12 12 12 12 12 12 12 12 12 12 12 12 12 12 12 11 11 11 11 11 11
15 15 15 14 14 14 14 14 14 14 13 13 13 13 13 13 13 13 12 12 12 12 12 12 12 12 12 12 12 12 12 12 12 12 12 11 11 11 11 11 11 11 11 10
15 14 14 14 14 14 14 13 13 13 13 13 13 12 12 12 12 12 12 12 12 12 11 11 11 11 11 11 11 11 11 11 11 11 11 11 11 11 11 11 11 11 10 10
14 14 14 14 14 14 13 13 13 13 13 12 12 12 12 12 12 12 12 11 11 11 11 11 11 11 11 11 11 11 11 11 11 11 11 11 11 11 11 11 10 10 10 10
13 13 13 13 13 13 13 13 13 12 12 12 12 12 12 12 12 12 11 11 11 11 11 11 11 11 11 11 11 11 11 11 11 11 11 11 11 10 10 10 10 10 9 9
13 13 13 13 13 13 12 12 12 12 12 12 12 12 12 12 12 11 11 11 11 11 11 11 11 11 11 11 11 11 11 11 10 10 10 10 10 10 10 10 10 9 9 9
13 13 12 12 12 12 12 12 12 12 12 12 12 12 12 11 11 11 11 11 11 11 11 11 11 11 11 11 11 11 10 10 10 10 10 10 10 10 9 9 9 9 9 9
12 12 12 12 12 12 12 12 12 12 12 12 11 11 11 11 11 11 11 11 11 11 11 10 10 10 10 10 10 10 10 10 10 10 9 9 9 9 9 9 9 9 8 8
12 12 12 12 12 12 12 12 11 11 11 11 11 11 11 11 11 11 11 11 11 11 10 10 10 10 10 10 10 10 9 9 9 9 9 9 9 9 8 8 8 8 8 8
12 12 12 12 12 12 12 11 11 11 11 11 11 11 11 11 11 11 11 10 10 10 10 10 10 10 10 10 9 9 9 9 9 9 9 9 8 8 8 8 8 7 7 7
12 12 12 12 11 11 11 11 11 11 11 11 11 11 11 11 11 11 10 10 10 10 10 10 9 9 9 9 9 9 9 9 8 8 8 8 8 8 8 7 7 7 7 7
Wind_Speed
3 4 2 3 6 5 2 5 6 6 5 6 4 5 4 5 7 6 5 5 5 4 4 4 4 4 4 4 4 5 5 6 6 5 4 4 5 5 5 6 6 5 5 5
4 4 5 5 6 5 3 1 4 5 2 3 3 5 6 6 7 6 4 4 4 4 5 4 3 3 3 3 4 5 6 6 5 4 4 4 3 3 4 5 5 5 5 6
2 5 5 4 3 1 2 2 3 3 4 3 4 5 7 6 6 5 5 4 3 3 4 4 3 3 2 2 3 4 4 4 4 4 4 4 4 3 4 4 4 4 5 5
1 3 2 6 2 4 5 5 4 3 2 4 6 5 5 6 6 5 4 4 3 3 2 2 2 2 2 2 3 3 3 3 3 4 5 4 4 4 4 3 3 4 4 4
3 2 4 5 4 1 3 4 4 4 4 4 6 7 3 2 4 6 5 5 4 3 3 2 2 2 2 1 1 2 2 3 3 4 4 4 4 4 3 3 3 3 4 4
3 3 4 4 5 1 6 2 4 4 4 2 3 2 2 2 1 2 3 3 3 3 3 2 2 3 3 1 1 1 2 2 3 3 4 4 4 3 2 3 3 3 3 3
4 4 5 5 6 4 2 4 1 2 3 2 1 3 3 1 1 2 3 3 3 4 3 3 2 2 2 0 2 3 2 1 1 2 3 3 3 2 2 2 3 2 2 2
3 4 6 4 4 3 5 2 2 2 2 2 1 1 2 2 2 2 2 2 2 2 2 2 2 2 1 2 3 1 1 1 1 1 1 1 2 2 2 3 3 3 2 2
4 5 4 1 2 3 4 3 1 1 1 2 1 1 2 1 2 1 1 1 1 2 2 1 1 2 2 3 2 1 1 1 1 0 0 1 2 3 2 2 3 3 3 3
2 1 0 2 2 3 4 3 1 2 2 2 2 1 1 1 0 1 0 1 1 2 2 1 2 2 3 3 2 2 1 1 1 0 0 0 1 2 2 2 3 3 3 3
1 2 1 2 1 2 3 3 3 3 2 2 2 1 2 2 1 1 1 1 1 2 2 2 2 2 2 2 2 2 2 1 1 1 2 1 1 1 2 2 3 4 4 4
5 6 4 4 3 2 3 2 2 2 2 1 2 2 1 1 1 2 1 1 1 2 2 2 1 2 2 2 2 2 2 2 2 1 1 2 1 0 1 1 0 2 3 4
5 4 3 2 1 1 2 2 2 2 3 2 1 2 3 2 1 2 2 1 2 2 2 1 1 1 2 2 2 3 3 3 2 2 2 2 2 3 1 1 3 1 1 2
3 2 1 1 2 2 2 2 2 1 1 2 2 2 2 2 2 2 1 1 1 1 0 0 0 2 3 2 1 2 2 2 2 2 2 2 2 2 2 2 1 1 1 1
2 3 4 3 1 1 2 2 3 2 3 3 3 3 2 2 2 2 1 1 2 2 2 1 2 3 3 1 0 1 1 2 2 2 2 2 1 1 1 2 2 1 0 1
2 1 2 2 2 2 3 3 2 2 2 2 2 2 2 3 3 2 2 2 2 1 1 1 1 3 2 1 1 1 1 2 2 2 1 1 1 2 1 2 2 1 1 0
2 1 2 2 2 2 2 2 3 2 1 2 1 1 1 2 3 3 2 2 2 0 0 0 2 3 2 1 0 1 1 1 2 1 2 2 2 2 2 2 2 2 1 1
5 5 5 5 3 3 2 2 3 2 1 1 1 2 2 2 3 2 2 2 2 2 2 2 2 2 2 1 0 1 1 1 1 2 2 2 2 2 2 3 3 3 1 1
4 4 4 4 4 4 3 3 2 2 1 1 2 2 2 2 2 2 2 2 2 1 2 2 2 2 2 2 2 1 2 2 2 2 2 3 3 2 3 3 2 2 2 2
3 2 3 3 3 3 3 2 2 2 1 1 2 3 2 0 1 2 2 2 1 2 2 0 1 1 1 1 2 1 2 2 3 2 2 2 2 2 2 2 2 2 2 2
3 3 3 3 3 3 3 3 3 2 1 2 3 3 2 1 2 3 3 1 2 2 1 0 1 1 1 1 2 2 1 2 2 2 2 2 3 3 3 3 3 2 2 2
3 3 3 3 3 2 2 2 2 3 2 3 3 3 2 1 1 2 1 2 1 0 1 1 1 1 2 2 2 2 2 2 1 2 2 3 3 3 3 3 3 2 2 2
2 3 2 2 1 1 1 1 2 3 3 3 3 3 2 1 1 2 1 1 0 2 2 1 2 3 3 3 3 3 3 2 2 3 3 3 3 3 3 3 3 3 2 2
2 2 2 1 1 2 1 0 1 2 3 2 2 2 3 2 1 0 1 1 2 3 2 2 3 3 3 3 3 3 3 3 2 2 3 3 3 3 3 3 3 2 2 3
1 0 0 0 1 1 1 1 1 2 2 1 1 1 1 2 3 2 1 2 3 3 2 1 1 1 2 2 3 3 2 2 3 3 3 3 3 2 2 2 3 3 3 3
0 0 1 1 1 2 1 1 1 1 2 1 1 1 1 1 2 2 2 1 2 2 2 1 1 1 2 2 2 2 2 2 3 3 3 3 3 3 2 2 3 3 3 2
1 0 1 1 1 1 1 2 2 2 2 2 2 1 2 2 3 3 3 1 1 1 1 2 2 2 2 2 3 3 3 2 2 3 3 3 3 2 2 3 2 2 2 2
Wind_Direction
217 254 312 315 312 320 274 198 188 205 186 213 195 163 147 136 122 111 114 122 128 136 140 142 146 156 166 174 180 177 177 185 196 201 205 217 214 212 210 206 206 198 197 203
349 339 353 331 322 338 358 55 137 136 199 227 151 106 103 115 121 121 120 120 125 131 134 134 142 156 160 169 178 175 181 194 196 191 193 206 217 214 210 207 205 196 197 199
297 316 10 320 310 49 44 26 137 176 213 163 119 126 133 134 129 142 149 142 135 135 140 148 163 158 157 173 163 164 176 186 184 178 188 200 202 191 204 207 201 199 202 199
139 27 247 245 294 88 66 31 52 101 136 141 140 141 129 135 135 145 152 151 142 136 132 149 157 159 167 161 157 156 163 179 193 191 195 204 198 200 208 203 201 201 205 202
133 190 267 296 322 98 100 9 18 85 86 82 105 80 54 80 132 157 168 164 158 155 147 148 150 152 141 141 149 146 170 186 207 208 200 202 207 215 213 195 209 209 198 198
149 172 221 250 304 326 97 41 9 69 85 75 63 87 267 298 44 142 149 155 157 151 137 148 179 154 138 141 164 216 227 211 207 208 200 205 210 212 209 194 207 201 194 202
173 201 246 267 319 23 119 211 308 81 105 81 55 215 235 276 47 121 141 155 156 150 161 189 192 143 138 167 229 235 228 199 198 200 204 207 206 198 181 181 178 184 192 217
163 190 243 302 30 120 189 198 120 92 94 87 95 67 54 51 58 87 105 130 137 155 190 204 178 153 160 243 246 221 170 165 168 183 207 202 180 189 170 172 177 187 189 210
180 206 254 341 112 169 155 128 123 107 95 105 104 87 58 40 40 59 107 167 177 172 193 233 198 159 207 256 256 188 156 183 233 268 216 188 171 170 173 180 190 199 194 208
74 275 205 83 91 82 98 114 138 136 110 100 134 132 118 119 348 322 239 207 175 156 171 247 271 246 225 237 218 173 186 203 201 153 147 197 165 158 168 193 209 205 203 211
114 239 14 348 157 134 97 77 64 66 77 109 128 177 185 187 215 212 214 216 157 156 186 227 244 248 246 233 179 173 187 198 199 195 181 165 152 165 175 185 198 198 205 203
222 232 192 243 248 138 114 114 118 107 82 99 148 182 172 183 215 201 190 209 182 182 195 224 233 255 261 238 189 183 195 205 207 195 183 174 174 155 54 103 300 231 207 200
197 206 197 235 245 164 137 144 145 137 149 150 154 153 147 145 159 157 140 143 176 207 217 211 204 266 275 248 196 198 207 210 207 195 187 191 190 188 200 3 25 4 247 209
190 145 165 223 216 194 145 117 102 101 109 137 148 128 121 118 119 117 148 189 166 138 81 51 342 303 298 292 210 193 203 211 206 205 198 191 198 203 180 173 214 300 333 296
205 170 188 205 208 140 117 106 95 89 76 78 96 106 116 130 142 150 149 104 82 69 48 29 0 324 324 347 50 162 177 205 199 189 185 186 188 166 169 175 178 190 47 357
220 139 133 130 138 112 99 104 105 101 89 89 87 102 128 141 137 119 97 97 94 75 30 21 329 307 312 357 80 131 174 182 180 169 168 169 172 171 185 177 164 151 152 166
181 157 133 122 131 123 123 135 149 155 129 116 154 170 148 122 104 97 99 92 108 130 262 296 300 310 323 335 119 156 161 167 172 164 168 181 180 166 151 144 156 150 148 148
174 167 160 152 150 138 130 121 115 116 145 175 120 106 130 142 153 161 152 98 63 30 2 340 328 338 356 12 76 130 135 154 154 155 149 145 147 141 132 130 136 137 138 118
133 148 151 146 148 142 144 147 149 150 166 161 126 131 134 141 153 152 135 95 78 39 328 332 357 27 18 15 60 101 113 116 114 121 124 124 122 124 123 121 131 146 149 131
71 97 113 103 99 110 123 137 143 147 164 163 138 127 114 93 141 138 125 111 159 209 227 276 42 47 5 353 70 105 126 131 136 134 126 125 128 129 126 132 138 135 133 134
82 82 90 96 91 92 105 122 135 147 165 133 131 139 148 164 139 127 121 109 297 269 229 42 64 37 17 50 86 93 108 123 134 136 129 123 119 124 128 127 126 124 130 131
91 81 87 95 96 92 101 120 136 144 134 125 127 125 116 120 126 109 126 180 232 249 96 76 62 51 46 62 68 77 83 95 112 130 133 130 131 133 132 133 131 127 122 119
104 101 99 97 107 123 99 111 133 133 133 140 143 135 129 145 142 127 107 312 48 104 97 75 69 61 57 62 60 72 80 84 91 102 113 123 132 136 134 134 135 129 123 118
103 121 151 159 119 98 95 143 142 127 132 138 147 148 137 129 96 171 169 139 111 114 107 100 83 69 62 59 53 56 60 73 89 102 107 112 121 125 127 133 134 123 118 121
109 82 344 88 118 163 190 155 100 97 105 112 119 132 143 161 169 180 158 144 137 137 134 124 114 94 76 66 61 62 64 72 85 91 102 111 109 112 118 121 125 126 128 131
176 204 249 211 195 196 170 144 147 165 154 153 186 181 152 142 141 129 116 130 130 137 142 142 117 93 83 80 79 85 85 72 74 82 85 88 98 105 109 112 120 127 132 135
103 77 20 7 334 229 176 165 170 179 175 166 172 183 148 135 132 128 124 133 145 147 138 139 139 139 134 115 99 95 92 87 87 92 91 89 94 103 108 114 120 120 118 111
Height
1479 1474 1472 1472 1471 1468 1473 1479 1487 1484 1484 1480 1475 1474 1473 1473 1474 1476 1477 1478 1478 1479 1480 1482 1484 1485 1487 1488 1490 1491 1491 1492 1493 1494 1495 1496 1496 1497 1498 1499 1500 1501 1502 1503
1479 1472 1471 1472 1469 1466 1468 1470 1474 1476 1480 1473 1472 1472 1473 1474 1474 1475 1477 1477 1478 1478 1479 1480 1482 1483 1485 1486 1487 1488 1488 1489 1490 1490 1491 1492 1492 1494 1494 1495 1496 1497 1498 1499
1489 1478 1475 1482 1472 1470 1471 1470 1472 1478 1477 1473 1473 1472 1472 1473 1474 1475 1476 1476 1477 1477 1478 1479 1480 1482 1482 1483 1484 1485 1485 1486 1486 1487 1488 1489 1489 1490 1490 1491 1492 1492 1493 1494
1491 1486 1494 1483 1466 1465 1469 1470 1469 1470 1471 1471 1471 1471 1472 1473 1474 1475 1476 1476 1476 1477 1477 1478 1479 1480 1480 1481 1482 1482 1483 1483 1483 1483 1484 1485 1485 1486 1486 1487 1488 1488 1489 1490
1496 1497 1489 1476 1467 1466 1471 1476 1471 1471 1472 1471 1471 1471 1474 1474 1473 1474 1475 1475 1476 1476 1476 1477 1477 1477 1478 1479 1479 1479 1480 1480 1480 1480 1481 1481 1481 1482 1483 1484 1484 1485 1486 1486
1491 1493 1494 1481 1467 1463 1467 1481 1474 1472 1472 1472 1471 1477 1477 1474 1473 1473 1474 1474 1474 1474 1475 1476 1476 1475 1475 1475 1475 1476 1476 1476 1477 1478 1478 1478 1478 1479 1479 1480 1481 1482 1482 1483
1489 1491 1484 1471 1465 1464 1480 1483 1474 1473 1472 1472 1473 1474 1473 1472 1471 1471 1471 1472 1472 1472 1473 1473 1474 1473 1473 1473 1473 1473 1474 1474 1474 1475 1475 1475 1476 1476 1477 1477 1478 1478 1478 1479
1487 1491 1487 1467 1466 1471 1475 1472 1472 1471 1471 1471 1471 1471 1471 1470 1470 1470 1470 1470 1470 1470 1471 1471 1471 1471 1471 1470 1470 1470 1470 1471 1471 1472 1472 1472 1472 1473 1473 1474 1474 1475 1475 1476
1480 1482 1472 1467 1467 1469 1469 1470 1471 1471 1470 1470 1470 1469 1469 1470 1469 1469 1469 1468 1468 1468 1468 1469 1469 1469 1468 1468 1468 1468 1467 1467 1468 1468 1468 1469 1469 1469 1470 1471 1471 1471 1472 1472
1475 1473 1470 1469 1468 1469 1469 1469 1469 1470 1469 1469 1469 1469 1469 1468 1468 1468 1467 1467 1466 1466 1466 1467 1467 1466 1466 1465 1465 1465 1464 1464 1464 1464 1465 1465 1465 1465 1466 1467 1468 1468 1468 1469
1475 1472 1471 1469 1469 1468 1468 1468 1468 1468 1468 1468 1467 1468 1468 1467 1466 1466 1466 1466 1465 1464 1464 1465 1464 1464 1463 1463 1463 1462 1462 1462 1461 1462 1462 1462 1462 1462 1463 1463 1464 1464 1464 1465
1475 1469 1470 1469 1468 1467 1466 1466 1466 1466 1466 1466 1466 1466 1465 1465 1465 1464 1464 1464 1464 1463 1463 1462 1462 1461 1461 1461 1460 1459 1459 1459 1459 1459 1459 1460 1460 1460 1460 1461 1461 1462 1461 1462
1466 1466 1466 1466 1466 1466 1465 1465 1464 1464 1463 1464 1464 1463 1463 1463 1463 1462 1461 1462 1462 1461 1461 1460 1459 1459 1458 1458 1457 1457 1457 1456 1456 1456 1457 1457 1458 1458 1457 1458 1458 1459 1459 1459
1464 1464 1464 1464 1464 1464 1464 1463 1463 1462 1462 1462 1462 1461 1461 1461 1461 1461 1460 1460 1460 1459 1458 1458 1457 1457 1456 1455 1455 1454 1454 1454 1454 1454 1454 1454 1455 1455 1455 1455 1455 1456 1456 1456
1462 1462 1462 1462 1462 1462 1462 1461 1461 1460 1460 1460 1460 1460 1459 1459 1459 1459 1459 1459 1458 1457 1456 1456 1456 1455 1454 1453 1452 1452 1451 1451 1451 1451 1452 1452 1453 1453 1453 1453 1454 1454 1454 1454
1460 1460 1460 1459 1460 1460 1460 1459 1459 1459 1459 1458 1458 1458 1458 1458 1458 1458 1458 1458 1457 1456 1455 1455 1454 1453 1453 1452 1451 1450 1450 1450 1450 1450 1450 1450 1451 1451 1451 1452 1452 1452 1452 1452
1457 1457 1458 1458 1458 1458 1458 1458 1458 1458 1458 1457 1457 1457 1457 1457 1457 1457 1457 1457 1456 1455 1455 1454 1453 1453 1452 1451 1450 1449 1449 1449 1449 1449 1448 1449 1450 1450 1450 1451 1451 1451 1452 1452
1454 1454 1455 1456 1457 1457 1457 1457 1457 1457 1457 1456 1456 1456 1456 1456 1456 1456 1456 1455 1455 1454 1454 1453 1452 1451 1450 1450 1449 1448 1448 1448 1448 1448 1448 1448 1449 1449 1449 1450 1451 1451 1451 1451
1452 1452 1453 1454 1455 1455 1455 1456 1456 1456 1456 1456 1456 1455 1455 1455 1455 1455 1455 1454 1453 1453 1453 1452 1451 1450 1449 1449 1448 1448 1448 1448 1448 1448 1448 1448 1449 1449 1449 1450 1450 1450 1450 1450
1452 1453 1453 1453 1454 1454 1454 1454 1454 1455 1455 1455 1454 1454 1455 1455 1455 1455 1455 1454 1453 1453 1452 1452 1451 1450 1449 1449 1448 1448 1448 1448 1449 1449 1449 1449 1449 1449 1449 1450 1450 1449 1449 1449
1453 1453 1453 1453 1453 1454 1454 1454 1454 1453 1454 1453 1453 1453 1454 1454 1454 1454 1454 1454 1453 1453 1452 1452 1451 1450 1449 1449 1448 1448 1448 1448 1448 1448 1448 1448 1448 1448 1449 1449 1449 1449 1449 1448
1453 1453 1454 1454 1453 1454 1453 1453 1453 1453 1453 1453 1453 1453 1454 1454 1454 1454 1454 1454 1453 1452 1452 1451 1451 1450 1450 1449 1448 1448 1448 1448 1447 1448 1447 1448 1448 1448 1448 1448 1448 1448 1448 1448
1453 1453 1454 1454 1454 1453 1453 1453 1453 1453 1453 1453 1453 1453 1453 1454 1453 1453 1453 1453 1453 1452 1452 1451 1451 1450 1450 1449 1448 1448 1448 1447 1447 1447 1447 1447 1447 1447 1447 1447 1447 1447 1447 1446
1453 1453 1453 1453 1453 1453 1452 1453 1453 1452 1453 1453 1453 1453 1453 1453 1453 1453 1453 1453 1453 1452 1452 1451 1451 1451 1450 1449 1449 1448 1448 1448 1447 1447 1447 1447 1447 1447 1447 1446 1446 1446 1445 1445
1453 1453 1453 1452 1452 1452 1452 1452 1452 1452 1453 1453 1453 1453 1453 1453 1453 1453 1453 1453 1453 1452 1452 1452 1451 1451 1450 1449 1449 1448 1448 1448 1448 1447 1447 1447 1446 1446 1446 1445 1445 1445 1444 1444
1453 1453 1453 1452 1452 1452 1452 1452 1452 1453 1453 1453 1453 1453 1453 1453 1453 1453 1453 1453 1453 1452 1452 1452 1451 1451 1450 1449 1449 1448 1448 1448 1447 1447 1447 1446 1446 1445 1445 1444 1444 1444 1443 1442
1453 1453 1452 1452 1452 1452 1452 1452 1452 1452 1452 1452 1452 1452 1452 1452 1453 1453 1453 1453 1452 1452 1452 1451 1451 1450 1450 1449 1449 1448 1448 1448 1447 1447 1447 1446 1446 1445 1444 1444 1443 1442 1442 1441